| time (UTC) | temp C | wind direction | speed KPH | gust KPH | rain 1hr cm | rain 24hr cm | rain mn cm | humidity % | barometer mb |
| 20260506113806 | 11 | 310 | 12.9 | 16.1 | 0.00 | 0.00 | 0.00 | 83 | 1013.8 |
| 20260506113303 | 11 | 357 | 14.5 | 17.7 | 0.00 | 0.00 | 0.00 | 83 | 1013.3 |
| 20260506112759 | 11 | 352 | 14.5 | 17.7 | 0.00 | 0.00 | 0.00 | 83 | 1013.4 |
| 20260506112257 | 11 | 358 | 12.9 | 20.9 | 0.00 | 0.00 | 0.00 | 83 | 1013.3 |
| 20260506111754 | 11 | 19 | 8.0 | 9.7 | 0.00 | 0.00 | 0.00 | 83 | 1013.1 |
| 20260506111252 | 11 | 345 | 12.9 | 14.5 | 0.00 | 0.00 | 0.00 | 82 | 1013.2 |
| 20260506110749 | 11 | 5 | 12.9 | 20.9 | 0.00 | 0.00 | 0.00 | 82 | 1013.1 |
| 20260506110247 | 12 | 352 | 8.0 | 11.3 | 0.00 | 0.00 | 0.00 | 81 | 1012.9 |
| 20260506105743 | 12 | 329 | 8.0 | 9.7 | 0.00 | 0.00 | 0.00 | 81 | 1012.7 |
| 20260506105240 | 12 | 7 | 11.3 | 12.9 | 0.00 | 0.00 | 0.00 | 81 | 1012.6 |
| 20260506104738 | 12 | 7 | 8.0 | 11.3 | 0.00 | 0.00 | 0.00 | 80 | 1012.6 |
| 20260506104235 | 12 | 14 | 8.0 | 12.9 | 0.00 | 0.00 | 0.00 | 80 | 1012.3 |
| 20260506103732 | 12 | 313 | 8.0 | 11.3 | 0.00 | 0.00 | 0.00 | 80 | 1012.3 |
| 20260506103229 | 12 | 333 | 11.3 | 12.9 | 0.00 | 0.00 | 0.00 | 80 | 1012.5 |
| 20260506102727 | 12 | 20 | 11.3 | 12.9 | 0.00 | 0.00 | 0.00 | 80 | 1012.3 |
| 20260506102225 | 12 | 23 | 14.5 | 16.1 | 0.00 | 0.00 | 0.00 | 80 | 1012.2 |
| 20260506101721 | 12 | 27 | 6.4 | 8.0 | 0.00 | 0.00 | 0.00 | 80 | 1012.2 |
| 20260506101218 | 12 | 8 | 11.3 | 14.5 | 0.00 | 0.00 | 0.00 | 79 | 1012.0 |
| 20260506100716 | 12 | 356 | 9.7 | 11.3 | 0.00 | 0.00 | 0.00 | 79 | 1012.1 |
| 20260506100214 | 12 | 32 | 9.7 | 12.9 | 0.00 | 0.00 | 0.00 | 79 | 1012.0 |
| 20260506095712 | 12 | 354 | 9.7 | 11.3 | 0.00 | 0.00 | 0.00 | 79 | 1012.3 |
| 20260506095209 | 12 | 355 | 9.7 | 12.9 | 0.00 | 0.00 | 0.00 | 79 | 1012.2 |
| 20260506094706 | 12 | 345 | 11.3 | 12.9 | 0.00 | 0.00 | 0.00 | 78 | 1012.0 |
| 20260506094204 | 12 | 25 | 6.4 | 9.7 | 0.00 | 0.00 | 0.00 | 79 | 1011.9 |
| 20260506093703 | 12 | 336 | 4.8 | 8.0 | 0.00 | 0.00 | 0.00 | 78 | 1012.1 |
| 20260506093159 | 12 | 6 | 6.4 | 8.0 | 0.00 | 0.00 | 0.00 | 78 | 1012.0 |
| 20260506092656 | 12 | 353 | 11.3 | 14.5 | 0.00 | 0.00 | 0.00 | 77 | 1011.8 |
| 20260506092154 | 12 | 323 | 6.4 | 9.7 | 0.00 | 0.00 | 0.00 | 77 | 1011.8 |
| 20260506091652 | 12 | 342 | 8.0 | 11.3 | 0.00 | 0.00 | 0.00 | 77 | 1011.6 |
| 20260506091149 | 12 | 342 | 11.3 | 12.9 | 0.00 | 0.00 | 0.00 | 77 | 1011.6 |
| 20260506090647 | 12 | 8 | 4.8 | 4.8 | 0.00 | 0.00 | 0.00 | 77 | 1011.4 |
| 20260506090143 | 13 | 2 | 6.4 | 9.7 | 0.00 | 0.00 | 0.00 | 77 | 1011.2 |
| 20260506085640 | 13 | 341 | 9.7 | 12.9 | 0.00 | 0.00 | 0.00 | 76 | 1011.4 |
| 20260506085136 | 13 | 7 | 4.8 | 9.7 | 0.00 | 0.00 | 0.00 | 77 | 1011.5 |
| 20260506084633 | 13 | 60 | 4.8 | 8.0 | 0.00 | 0.00 | 0.00 | 78 | 1011.4 |
| 20260506084130 | 13 | 1 | 4.8 | 4.8 | 0.00 | 0.00 | 0.00 | 78 | 1011.3 |
| 20260506083626 | 13 | 22 | 8.0 | 9.7 | 0.00 | 0.00 | 0.00 | 77 | 1011.4 |
| 20260506083124 | 13 | 37 | 6.4 | 8.0 | 0.00 | 0.00 | 0.00 | 77 | 1011.2 |
| 20260506082621 | 13 | 357 | 6.4 | 8.0 | 0.00 | 0.00 | 0.00 | 77 | 1011.2 |
| 20260506082116 | 13 | 16 | 3.2 | 3.2 | 0.00 | 0.00 | 0.00 | 77 | 1011.3 |
| 20260506081615 | 13 | 1 | 4.8 | 8.0 | 0.00 | 0.00 | 0.00 | 77 | 1011.1 |
| 20260506081112 | 13 | 4 | 8.0 | 9.7 | 0.00 | 0.00 | 0.00 | 78 | 1011.2 |
| 20260506080610 | 13 | 7 | 3.2 | 8.0 | 0.00 | 0.00 | 0.00 | 77 | 1011.1 |
| 20260506080106 | 13 | 53 | 1.6 | 3.2 | 0.00 | 0.00 | 0.00 | 77 | 1011.3 |
| 20260506073050 | 13 | 1 | 8.0 | 9.7 | 0.00 | 0.00 | 0.00 | 77 | 1011.5 |
| 20260506072547 | 13 | 339 | 9.7 | 14.5 | 0.00 | 0.00 | 0.00 | 78 | 1011.3 |
| 20260506072044 | 13 | 8 | 11.3 | 12.9 | 0.00 | 0.00 | 0.00 | 77 | 1011.2 |
| 20260506071542 | 13 | 344 | 11.3 | 14.5 | 0.00 | 0.00 | 0.00 | 77 | 1011.3 |
| 20260506071039 | 13 | 356 | 9.7 | 12.9 | 0.00 | 0.00 | 0.00 | 78 | 1011.6 |
| 20260506070536 | 13 | 18 | 6.4 | 9.7 | 0.00 | 0.00 | 0.00 | 78 | 1011.5 |
| 20260506062514 | 13 | 8 | 9.7 | 11.3 | 0.00 | 0.00 | 0.00 | 79 | 1010.9 |
| 20260506062010 | 13 | 10 | 9.7 | 11.3 | 0.00 | 0.00 | 0.00 | 78 | 1011.4 |
| 20260506061506 | 13 | 2 | 11.3 | 11.3 | 0.00 | 0.00 | 0.00 | 78 | 1011.3 |
| 20260506061004 | 13 | 27 | 11.3 | 12.9 | 0.00 | 0.00 | 0.00 | 79 | 1011.3 |
| 20260506060502 | 13 | 3 | 11.3 | 12.9 | 0.00 | 0.00 | 0.00 | 79 | 1011.2 |
| 20260506050931 | 15 | 358 | 8.0 | 9.7 | 0.00 | 0.00 | 0.00 | 80 | 1010.9 |
| 20260506050429 | 15 | 359 | 12.9 | 16.1 | 0.00 | 0.00 | 0.00 | 80 | 1010.7 |
| 20260506044919 | 15 | 3 | 9.7 | 12.9 | 0.00 | 0.00 | 0.00 | 80 | 1011.0 |
| 20260506044417 | 15 | 4 | 14.5 | 20.9 | 0.00 | 0.00 | 0.00 | 80 | 1010.9 |
| 20260506043914 | 15 | 2 | 11.3 | 14.5 | 0.00 | 0.00 | 0.00 | 80 | 1011.0 |
| 20260506043411 | 15 | 2 | 9.7 | 11.3 | 0.00 | 0.00 | 0.00 | 81 | 1010.5 |
| 20260506042909 | 15 | 331 | 9.7 | 12.9 | 0.00 | 0.00 | 0.00 | 81 | 1010.7 |
| 20260506042408 | 16 | 349 | 6.4 | 8.0 | 0.00 | 0.00 | 0.00 | 81 | 1010.3 |
| 20260506041906 | 16 | 357 | 8.0 | 9.7 | 0.00 | 0.00 | 0.00 | 81 | 1010.3 |
| 20260506041403 | 16 | 350 | 11.3 | 14.5 | 0.00 | 0.00 | 0.00 | 81 | 1010.4 |
| 20260506040900 | 16 | 10 | 14.5 | 16.1 | 0.00 | 0.00 | 0.00 | 80 | 1010.6 |
| 20260506040358 | 16 | 39 | 14.5 | 16.1 | 0.00 | 0.00 | 0.00 | 80 | 1010.3 |
| 20260506035853 | 16 | 349 | 11.3 | 16.1 | 0.00 | 0.00 | 0.00 | 79 | 1010.4 |
| 20260506035351 | 16 | 6 | 11.3 | 17.7 | 0.00 | 0.00 | 0.00 | 79 | 1010.2 |
| 20260506034848 | 16 | 341 | 17.7 | 22.5 | 0.00 | 0.00 | 0.00 | 80 | 1010.5 |
| 20260506034345 | 16 | 11 | 6.4 | 11.3 | 0.00 | 0.00 | 0.00 | 80 | 1010.3 |
| 20260506033842 | 16 | 326 | 11.3 | 14.5 | 0.00 | 0.00 | 0.00 | 79 | 1010.0 |
| 20260506033339 | 17 | 350 | 19.3 | 25.7 | 0.00 | 0.00 | 0.00 | 79 | 1009.9 |
| 20260506032836 | 17 | 349 | 12.9 | 16.1 | 0.00 | 0.00 | 0.00 | 79 | 1009.6 |
| 20260506032333 | 17 | 322 | 8.0 | 11.3 | 0.00 | 0.00 | 0.00 | 78 | 1009.8 |
| 20260506031830 | 17 | 342 | 6.4 | 8.0 | 0.00 | 0.00 | 0.00 | 78 | 1009.6 |
| 20260506031327 | 18 | 17 | 11.3 | 16.1 | 0.00 | 0.00 | 0.00 | 78 | 1009.7 |
| 20260506030825 | 18 | 2 | 14.5 | 17.7 | 0.00 | 0.00 | 0.00 | 77 | 1009.7 |
| 20260506030323 | 19 | 345 | 14.5 | 20.9 | 0.00 | 0.00 | 0.00 | 77 | 1009.5 |
| 20260506025819 | 20 | 34 | 16.1 | 22.5 | 0.00 | 0.00 | 0.00 | 77 | 1008.9 |
| 20260506025315 | 20 | 356 | 12.9 | 16.1 | 0.00 | 0.00 | 0.00 | 77 | 1008.8 |
| 20260506024813 | 20 | 355 | 16.1 | 22.5 | 0.00 | 0.00 | 0.00 | 76 | 1008.8 |
| 20260506024309 | 21 | 19 | 12.9 | 14.5 | 0.00 | 0.00 | 0.00 | 77 | 1008.4 |
| 20260506023805 | 21 | 16 | 4.8 | 8.0 | 0.00 | 0.00 | 0.00 | 77 | 1008.6 |
| 20260506023303 | 21 | 334 | 4.8 | 4.8 | 0.00 | 0.00 | 0.00 | 78 | 1008.5 |
| 20260506022759 | 21 | 334 | 12.9 | 16.1 | 0.00 | 0.00 | 0.00 | 78 | 1007.9 |
| 20260506022257 | 21 | 31 | 4.8 | 8.0 | 0.00 | 0.00 | 0.00 | 77 | 1008.0 |
| 20260506021755 | 21 | 34 | 11.3 | 12.9 | 0.00 | 0.00 | 0.00 | 77 | 1008.1 |
| 20260506021252 | 21 | 324 | 1.6 | 3.2 | 0.00 | 0.00 | 0.00 | 77 | 1007.8 |
| 20260506020748 | 21 | 353 | 8.0 | 11.3 | 0.00 | 0.00 | 0.00 | 76 | 1007.9 |
| 20260506020247 | 22 | 340 | 9.7 | 12.9 | 0.00 | 0.00 | 0.00 | 76 | 1007.8 |
| 20260506015744 | 22 | 8 | 8.0 | 9.7 | 0.00 | 0.00 | 0.00 | 75 | 1007.7 |
| 20260506015241 | 22 | 350 | 6.4 | 8.0 | 0.00 | 0.00 | 0.00 | 75 | 1007.7 |
| 20260506014738 | 22 | 353 | 11.3 | 12.9 | 0.00 | 0.00 | 0.00 | 74 | 1007.6 |
| 20260506014234 | 23 | 23 | 11.3 | 14.5 | 0.00 | 0.00 | 0.00 | 74 | 1007.9 |
| 20260506013732 | 23 | 328 | 4.8 | 4.8 | 0.00 | 0.00 | 0.00 | 74 | 1007.6 |
| 20260506013229 | 23 | 4 | 3.2 | 3.2 | 0.00 | 0.00 | 0.00 | 73 | 1007.5 |
| 20260506012725 | 23 | 17 | 4.8 | 4.8 | 0.00 | 0.00 | 0.00 | 73 | 1007.0 |
| 20260506012222 | 23 | 8 | 3.2 | 3.2 | 0.00 | 0.00 | 0.00 | 73 | 1007.4 |
| 20260506011719 | 23 | 48 | 1.6 | 1.6 | 0.00 | 0.00 | 0.00 | 72 | 1006.8 |
| 20260506011215 | 23 | 13 | 4.8 | 4.8 | 0.00 | 0.00 | 0.00 | 71 | 1007.4 |
| 20260506010714 | 23 | 35 | 4.8 | 4.8 | 0.00 | 0.00 | 0.00 | 70 | 1007.0 |
| 20260506010211 | 24 | 358 | 6.4 | 8.0 | 0.00 | 0.00 | 0.00 | 69 | 1007.1 |
| 20260506005708 | 25 | 359 | 9.7 | 12.9 | 0.00 | 0.00 | 0.00 | 67 | 1007.1 |
| 20260506005205 | 25 | 15 | 3.2 | 3.2 | 0.00 | 0.00 | 0.00 | 65 | 1007.3 |
| 20260506004701 | 25 | 297 | 4.8 | 8.0 | 0.00 | 0.00 | 0.00 | 66 | 1007.3 |
| 20260506004159 | 26 | 84 | 0.0 | 0.0 | 0.00 | 0.00 | 0.00 | 68 | 1006.9 |
| 20260506003654 | 26 | 42 | 1.6 | 1.6 | 0.00 | 0.00 | 0.00 | 77 | 1006.9 |
| 20260506003151 | 26 | 296 | 4.8 | 8.0 | 0.00 | 0.00 | 0.00 | 78 | 1007.0 |
| 20260506002647 | 26 | 248 | 6.4 | 8.0 | 0.00 | 0.00 | 0.00 | 77 | 1006.9 |
| 20260506002143 | 26 | 198 | 4.8 | 8.0 | 0.00 | 0.00 | 0.00 | 76 | 1006.5 |
| 20260506001639 | 26 | 194 | 4.8 | 4.8 | 0.00 | 0.00 | 0.00 | 75 | 1006.4 |
| 20260506001137 | 26 | 181 | 4.8 | 4.8 | 0.00 | 0.00 | 0.00 | 75 | 1006.1 |
| 20260506000633 | 27 | 180 | 8.0 | 9.7 | 0.00 | 0.00 | 0.00 | 75 | 1006.0 |
| 20260506000131 | 27 | 165 | 8.0 | 9.7 | 0.00 | 0.00 | 0.00 | 74 | 1005.9 |
| 20260505235629 | 27 | 180 | 8.0 | 9.7 | 0.00 | 0.00 | 0.00 | 74 | 1006.0 |
| 20260505235126 | 27 | 169 | 4.8 | 8.0 | 0.00 | 0.00 | 0.00 | 74 | 1006.1 |
| 20260505234622 | 27 | 188 | 8.0 | 9.7 | 0.00 | 0.00 | 0.00 | 73 | 1006.0 |
| 20260505234119 | 27 | 195 | 14.5 | 14.5 | 0.00 | 0.00 | 0.00 | 72 | 1006.0 |
| 20260505233617 | 27 | 149 | 9.7 | 11.3 | 0.00 | 0.00 | 0.00 | 72 | 1005.8 |
| 20260505233114 | 27 | 174 | 12.9 | 14.5 | 0.00 | 0.00 | 0.00 | 71 | 1005.9 |
| 20260505232612 | 27 | 195 | 9.7 | 11.3 | 0.00 | 0.00 | 0.00 | 71 | 1006.0 |
| 20260505232109 | 27 | 199 | 12.9 | 14.5 | 0.00 | 0.00 | 0.00 | 71 | 1005.8 |
| 20260505231606 | 27 | 165 | 12.9 | 12.9 | 0.00 | 0.00 | 0.00 | 70 | 1005.7 |
| 20260505231105 | 28 | 200 | 9.7 | 12.9 | 0.00 | 0.00 | 0.00 | 70 | 1005.6 |
| 20260505230602 | 28 | 216 | 12.9 | 16.1 | 0.00 | 0.00 | 0.00 | 69 | 1005.5 |
| 20260505230058 | 28 | 163 | 14.5 | 20.9 | 0.00 | 0.00 | 0.00 | 68 | 1005.8 |
| 20260505225555 | 28 | 183 | 14.5 | 16.1 | 0.00 | 0.00 | 0.00 | 67 | 1005.6 |
| 20260505225051 | 29 | 203 | 14.5 | 16.1 | 0.00 | 0.00 | 0.00 | 65 | 1005.8 |
| 20260505224548 | 29 | 205 | 17.7 | 20.9 | 0.00 | 0.00 | 0.00 | 66 | 1005.4 |
| 20260505224045 | 30 | 178 | 14.5 | 14.5 | 0.00 | 0.00 | 0.00 | 65 | 1005.4 |
| 20260505223542 | 30 | 197 | 12.9 | 14.5 | 0.00 | 0.00 | 0.00 | 65 | 1005.2 |
| 20260505223038 | 29 | 212 | 14.5 | 14.5 | 0.00 | 0.00 | 0.00 | 65 | 1005.2 |
| 20260505222535 | 28 | 205 | 11.3 | 16.1 | 0.00 | 0.00 | 0.00 | 68 | 1005.4 |
| 20260505222031 | 29 | 209 | 11.3 | 12.9 | 0.00 | 0.00 | 0.00 | 66 | 1005.6 |
| 20260505221528 | 29 | 203 | 14.5 | 14.5 | 0.00 | 0.00 | 0.00 | 66 | 1005.5 |
| 20260505221025 | 29 | 179 | 11.3 | 14.5 | 0.00 | 0.00 | 0.00 | 65 | 1005.5 |
| 20260505220522 | 29 | 191 | 12.9 | 16.1 | 0.00 | 0.00 | 0.00 | 65 | 1005.5 |
| 20260505220020 | 28 | 217 | 12.9 | 14.5 | 0.00 | 0.00 | 0.00 | 66 | 1005.4 |
| 20260505215518 | 28 | 207 | 16.1 | 17.7 | 0.00 | 0.00 | 0.00 | 66 | 1005.5 |
| 20260505215015 | 29 | 198 | 17.7 | 20.9 | 0.00 | 0.00 | 0.00 | 65 | 1005.5 |
| 20260505214513 | 29 | 199 | 9.7 | 11.3 | 0.00 | 0.00 | 0.00 | 66 | 1005.7 |
| 20260505214010 | 30 | 212 | 14.5 | 16.1 | 0.00 | 0.00 | 0.00 | 64 | 1005.6 |
| 20260505213508 | 30 | 218 | 16.1 | 20.9 | 0.00 | 0.00 | 0.00 | 64 | 1005.6 |
| 20260505213004 | 30 | 183 | 17.7 | 20.9 | 0.00 | 0.00 | 0.00 | 63 | 1005.8 |
| 20260505212500 | 29 | 204 | 16.1 | 17.7 | 0.00 | 0.00 | 0.00 | 65 | 1005.7 |
| 20260505211957 | 30 | 207 | 14.5 | 16.1 | 0.00 | 0.00 | 0.00 | 62 | 1005.6 |
| 20260505211454 | 30 | 229 | 17.7 | 17.7 | 0.00 | 0.00 | 0.00 | 64 | 1005.7 |
| 20260505210951 | 29 | 194 | 22.5 | 29.0 | 0.00 | 0.00 | 0.00 | 62 | 1005.7 |
| 20260505210448 | 29 | 217 | 14.5 | 14.5 | 0.00 | 0.00 | 0.00 | 63 | 1005.8 |
| 20260505205944 | 29 | 243 | 17.7 | 20.9 | 0.00 | 0.00 | 0.00 | 64 | 1005.9 |
| 20260505205443 | 29 | 225 | 11.3 | 12.9 | 0.00 | 0.00 | 0.00 | 65 | 1006.2 |
| 20260505204939 | 28 | 201 | 19.3 | 25.7 | 0.00 | 0.00 | 0.00 | 65 | 1006.3 |
| 20260505204438 | 29 | 212 | 19.3 | 25.7 | 0.00 | 0.00 | 0.00 | 64 | 1006.3 |
| 20260505203934 | 29 | 192 | 12.9 | 16.1 | 0.00 | 0.00 | 0.00 | 65 | 1006.3 |
| 20260505203431 | 28 | 186 | 14.5 | 16.1 | 0.00 | 0.00 | 0.00 | 68 | 1006.1 |
| 20260505202927 | 28 | 223 | 17.7 | 22.5 | 0.00 | 0.00 | 0.00 | 66 | 1006.1 |
| 20260505202424 | 28 | 219 | 17.7 | 20.9 | 0.00 | 0.00 | 0.00 | 66 | 1006.0 |
| 20260505201920 | 28 | 207 | 14.5 | 17.7 | 0.00 | 0.00 | 0.00 | 67 | 1006.0 |
| 20260505201417 | 28 | 263 | 17.7 | 17.7 | 0.00 | 0.00 | 0.00 | 67 | 1006.2 |
| 20260505200915 | 28 | 199 | 20.9 | 24.1 | 0.00 | 0.00 | 0.00 | 66 | 1006.5 |
| 20260505200412 | 28 | 218 | 16.1 | 17.7 | 0.00 | 0.00 | 0.00 | 66 | 1006.5 |
| 20260505195908 | 28 | 189 | 22.5 | 25.7 | 0.00 | 0.00 | 0.00 | 67 | 1006.1 |
| 20260505195405 | 28 | 205 | 22.5 | 24.1 | 0.00 | 0.00 | 0.00 | 67 | 1006.4 |
| 20260505194903 | 28 | 226 | 20.9 | 29.0 | 0.00 | 0.00 | 0.00 | 67 | 1006.5 |
| 20260505194400 | 28 | 228 | 24.1 | 27.4 | 0.00 | 0.00 | 0.00 | 66 | 1006.3 |
| 20260505193900 | 27 | 217 | 20.9 | 22.5 | 0.00 | 0.00 | 0.00 | 67 | 1006.4 |
| 20260505193358 | 27 | 183 | 20.9 | 24.1 | 0.00 | 0.00 | 0.00 | 68 | 1006.6 |
| 20260505192855 | 27 | 189 | 14.5 | 22.5 | 0.00 | 0.00 | 0.00 | 69 | 1006.5 |
| 20260505192353 | 27 | 195 | 27.4 | 29.0 | 0.00 | 0.00 | 0.00 | 68 | 1006.6 |
| 20260505191850 | 27 | 200 | 16.1 | 24.1 | 0.00 | 0.00 | 0.00 | 70 | 1006.2 |
| 20260505191349 | 27 | 211 | 19.3 | 22.5 | 0.00 | 0.00 | 0.00 | 70 | 1006.6 |
| 20260505190845 | 27 | 199 | 20.9 | 25.7 | 0.00 | 0.00 | 0.00 | 69 | 1006.8 |
| 20260505190341 | 27 | 193 | 17.7 | 22.5 | 0.00 | 0.00 | 0.00 | 69 | 1006.5 |
| 20260505185837 | 27 | 213 | 14.5 | 16.1 | 0.00 | 0.00 | 0.00 | 70 | 1006.5 |
| 20260505185333 | 27 | 227 | 19.3 | 24.1 | 0.00 | 0.00 | 0.00 | 70 | 1006.5 |
| 20260505184830 | 27 | 193 | 16.1 | 17.7 | 0.00 | 0.00 | 0.00 | 70 | 1006.6 |
| 20260505184327 | 27 | 193 | 17.7 | 22.5 | 0.00 | 0.00 | 0.00 | 70 | 1006.4 |
| 20260505183824 | 27 | 199 | 20.9 | 25.7 | 0.00 | 0.00 | 0.00 | 70 | 1006.4 |
| 20260505183321 | 27 | 211 | 16.1 | 17.7 | 0.00 | 0.00 | 0.00 | 68 | 1006.6 |
| 20260505182817 | 27 | 225 | 20.9 | 22.5 | 0.00 | 0.00 | 0.00 | 68 | 1006.5 |
| 20260505182314 | 27 | 227 | 19.3 | 22.5 | 0.00 | 0.00 | 0.00 | 69 | 1006.5 |
| 20260505181811 | 27 | 206 | 16.1 | 20.9 | 0.00 | 0.00 | 0.00 | 68 | 1006.6 |
| 20260505181308 | 27 | 221 | 27.4 | 33.8 | 0.00 | 0.00 | 0.00 | 67 | 1006.6 |
| 20260505180805 | 27 | 214 | 25.7 | 32.2 | 0.00 | 0.00 | 0.00 | 67 | 1006.5 |
| 20260505180301 | 27 | 192 | 25.7 | 27.4 | 0.00 | 0.00 | 0.00 | 68 | 1006.5 |
| 20260505175758 | 26 | 203 | 29.0 | 35.4 | 0.00 | 0.00 | 0.00 | 68 | 1006.7 |
| 20260505175254 | 26 | 226 | 22.5 | 29.0 | 0.00 | 0.00 | 0.00 | 69 | 1006.8 |
| 20260505174751 | 26 | 197 | 30.6 | 35.4 | 0.00 | 0.00 | 0.00 | 68 | 1006.2 |
| 20260505174248 | 26 | 205 | 20.9 | 25.7 | 0.00 | 0.00 | 0.00 | 71 | 1006.4 |
| 20260505173744 | 26 | 215 | 25.7 | 29.0 | 0.00 | 0.00 | 0.00 | 69 | 1006.1 |
| 20260505173241 | 26 | 201 | 24.1 | 29.0 | 0.00 | 0.00 | 0.00 | 70 | 1006.9 |
| 20260505172738 | 26 | 216 | 14.5 | 16.1 | 0.00 | 0.00 | 0.00 | 71 | 1006.7 |
| 20260505172235 | 26 | 220 | 24.1 | 29.0 | 0.00 | 0.00 | 0.00 | 71 | 1006.9 |
| 20260505171735 | 26 | 189 | 14.5 | 16.1 | 0.00 | 0.00 | 0.00 | 72 | 1006.8 |
| 20260505171232 | 26 | 198 | 20.9 | 22.5 | 0.00 | 0.00 | 0.00 | 71 | 1006.4 |
| 20260505170728 | 25 | 194 | 22.5 | 29.0 | 0.00 | 0.00 | 0.00 | 73 | 1006.5 |
| 20260505170226 | 25 | 214 | 19.3 | 22.5 | 0.00 | 0.00 | 0.00 | 73 | 1006.7 |
| 20260505165721 | 25 | 212 | 24.1 | 29.0 | 0.00 | 0.00 | 0.00 | 72 | 1007.0 |
| 20260505165217 | 25 | 224 | 22.5 | 25.7 | 0.00 | 0.00 | 0.00 | 73 | 1007.3 |
| 20260505164712 | 25 | 221 | 25.7 | 29.0 | 0.00 | 0.00 | 0.00 | 72 | 1007.2 |
| 20260505164210 | 25 | 211 | 24.1 | 27.4 | 0.00 | 0.00 | 0.00 | 72 | 1007.2 |
| 20260505163708 | 25 | 213 | 30.6 | 35.4 | 0.00 | 0.00 | 0.00 | 73 | 1007.0 |
| 20260505163206 | 25 | 211 | 27.4 | 37.0 | 0.00 | 0.00 | 0.00 | 74 | 1006.9 |
| 20260505162703 | 25 | 209 | 24.1 | 29.0 | 0.00 | 0.00 | 0.00 | 74 | 1006.8 |
| 20260505162200 | 25 | 219 | 29.0 | 35.4 | 0.00 | 0.00 | 0.00 | 74 | 1006.6 |
| 20260505161657 | 25 | 204 | 24.1 | 25.7 | 0.00 | 0.00 | 0.00 | 74 | 1006.7 |
| 20260505161154 | 25 | 214 | 19.3 | 22.5 | 0.00 | 0.00 | 0.00 | 76 | 1006.7 |
| 20260505160652 | 25 | 212 | 19.3 | 22.5 | 0.00 | 0.00 | 0.00 | 76 | 1006.5 |
| 20260505160149 | 25 | 226 | 17.7 | 22.5 | 0.00 | 0.00 | 0.00 | 75 | 1006.2 |
| 20260505153129 | 23 | 230 | 22.5 | 25.7 | 0.00 | 0.00 | 0.00 | 78 | 1006.6 |
| 20260505152625 | 23 | 196 | 19.3 | 27.4 | 0.00 | 0.00 | 0.00 | 78 | 1006.7 |
| 20260505152121 | 24 | 212 | 19.3 | 25.7 | 0.00 | 0.00 | 0.00 | 78 | 1006.7 |
| 20260505151617 | 23 | 218 | 14.5 | 24.1 | 0.00 | 0.00 | 0.00 | 79 | 1006.8 |
| 20260505151114 | 23 | 217 | 20.9 | 27.4 | 0.00 | 0.00 | 0.00 | 78 | 1006.9 |
| 20260505150610 | 23 | 198 | 27.4 | 32.2 | 0.00 | 0.00 | 0.00 | 80 | 1006.7 |
| 20260505150107 | 23 | 197 | 20.9 | 22.5 | 0.00 | 0.00 | 0.00 | 80 | 1007.0 |
| 20260505140536 | 22 | 205 | 25.7 | 29.0 | 0.00 | 0.00 | 0.00 | 83 | 1006.6 |
| 20260505124949 | 21 | 185 | 20.9 | 25.7 | 0.00 | 0.00 | 0.00 | 85 | 1006.5 |
| 20260505124446 | 21 | 197 | 14.5 | 16.1 | 0.00 | 0.00 | 0.00 | 85 | 1006.3 |
| 20260505123942 | 21 | 181 | 14.5 | 17.7 | 0.00 | 0.00 | 0.00 | 85 | 1006.5 |
| 20260505123439 | 21 | 211 | 17.7 | 22.5 | 0.00 | 0.00 | 0.00 | 84 | 1006.4 |
| 20260505122935 | 21 | 196 | 19.3 | 22.5 | 0.00 | 0.00 | 0.00 | 84 | 1006.3 |
| 20260505122432 | 21 | 195 | 17.7 | 20.9 | 0.00 | 0.00 | 0.00 | 84 | 1006.3 |
| 20260505121929 | 21 | 222 | 14.5 | 14.5 | 0.00 | 0.00 | 0.00 | 84 | 1006.3 |
| 20260505121426 | 21 | 209 | 16.1 | 17.7 | 0.00 | 0.00 | 0.00 | 84 | 1006.0 |
| 20260505120921 | 21 | 212 | 20.9 | 25.7 | 0.00 | 0.00 | 0.00 | 84 | 1006.1 |
| 20260505120418 | 21 | 207 | 20.9 | 25.7 | 0.00 | 0.00 | 0.00 | 84 | 1006.1 |
| 20260505115917 | 21 | 203 | 17.7 | 20.9 | 0.00 | 0.00 | 0.00 | 84 | 1006.0 |
| 20260505115414 | 21 | 209 | 17.7 | 17.7 | 0.00 | 0.00 | 0.00 | 85 | 1006.2 |
| 20260505114912 | 21 | 194 | 14.5 | 16.1 | 0.00 | 0.00 | 0.00 | 84 | 1006.1 |
| 20260505114408 | 21 | 198 | 17.7 | 20.9 | 0.00 | 0.00 | 0.00 | 85 | 1006.0 |